[[{"header":{"parameterUnit":"m.s-1","parameterCategory":1,"la1":30.2991,"la2":30.254,"lo1":-89.0895,"lo2":-89.0444,"dy":0.0017,"dx":0.0017,"nx":28,"ny":28,"refTime":"2024-07-29T03:00:00:Z","depth":0,"parameterNumber":2,"parameterNumberName":"U-component_of_WINDS"},"data":[0,0,0,0,0,0,0,0,0,0,0,0,0,0,0,0,0,0,0,0,0,0,0,0,0,0,0,0,0,0,0,0,0,0,0,0,0,0,0,0,0,0,0,0,0,0,0,0,0,0,0,0,0,0,0,0,0,0,2.7552,2.7553,0,2.7642,2.7643,2.7644,2.7582,2.7579,2.7576,2.7574,2.767,2.7675,2.768,0,0,0,0,0,0,0,0,0,0,0,0,0,2.7327,2.7331,2.7552,2.7553,2.7554,2.7642,2.7643,2.7644,2.7583,2.7579,2.7576,2.7572,2.7668,2.7675,2.7681,0,0,0,0,0,0,0,0,0,0,0,0,0,2.7422,2.7333,2.7551,2.7534,2.7533,2.7641,2.7643,2.7645,2.7583,2.7579,2.7575,2.7571,2.7666,2.7674,2.7682,2.7814,0,0,2.7705,2.7709,0,0,0,0,0,0,0,0,2.7416,2.743,2.7535,2.7535,2.7534,2.7596,2.7599,2.7702,2.7584,2.7564,2.7574,2.7569,2.7649,2.7658,2.7685,2.7819,2.7823,2.7706,2.7711,2.7714,2.7716,0,0,0,0,0,0,0,2.741,2.7426,2.7587,2.7537,2.7536,2.7521,2.753,2.7618,2.763,2.7566,2.7561,2.7573,2.7648,2.7677,2.7686,2.7824,2.7706,2.7713,2.7718,2.7721,2.8068,2.8072,0,0,0,0,0,0,2.7404,2.7421,2.7585,2.759,2.7464,2.7529,2.7539,2.7581,2.7628,2.7631,2.7576,2.7569,2.7666,2.7677,2.769,2.7845,2.7714,2.7721,2.7726,2.8063,2.8069,2.8074,0,0,0,0,0,0,2.74,2.742,2.7581,2.7504,2.7523,2.7537,2.7585,2.7585,2.7613,2.7636,2.7638,2.7604,2.7663,2.7679,2.7782,2.7848,2.7725,2.7732,2.8058,2.8065,2.8071,2.816,0,0,0,0,0,0,2.7394,2.7418,2.7469,2.7506,2.7528,2.7672,2.7589,2.759,2.7627,2.7619,2.7662,2.7666,2.7661,2.7771,2.779,2.7856,2.7738,2.8052,2.8061,2.8069,2.8151,2.8169,2.8184,0,0,0,0,0,2.7386,2.7492,2.7472,2.7492,2.7591,2.7676,2.7689,2.768,2.7632,2.7683,2.7697,2.7664,2.7838,2.7782,2.7803,2.7873,2.8048,2.8059,2.8069,2.8144,2.8165,2.8183,0,0,0,0,0,0,2.7465,2.7496,2.7475,2.7596,2.7633,2.7666,2.773,2.7704,2.7758,2.7748,2.7736,2.7747,2.7855,2.7874,2.7812,2.8002,2.7935,2.795,2.7985,2.8006,2.8022,2.8015,2.7745,0,0,0,0,0,2.7496,2.7561,2.7586,2.769,2.771,2.7717,2.7754,2.7743,2.7783,2.7799,2.7821,2.7861,2.7924,2.7966,2.8026,2.8153,2.8161,2.8211,2.8227,2.8241,2.8254,2.832,2.8342,2.8107,2.8107,2.8107,0,0,2.7561,2.7587,2.763,2.7707,2.7735,2.7803,2.7731,2.7807,2.7857,2.7811,2.7909,2.7926,2.797,2.8086,2.8138,2.8105,2.832,2.8254,2.8264,2.827,2.8333,2.8355,2.8375,2.8114,2.8113,2.8112,0,0,2.7715,2.7742,2.783,2.7859,2.7901,2.7904,2.7926,2.7961,2.797,2.8068,2.8034,2.8094,2.8204,2.8235,2.8266,2.8428,2.8399,2.8448,2.8534,2.8598,2.8617,2.8633,2.8689,2.8709,2.8461,2.8461,2.8461,0,2.7792,2.7893,2.7879,2.7957,2.7991,2.7949,2.8038,2.8067,2.8128,2.8152,2.8114,2.8249,2.8276,2.8397,2.8436,2.8463,2.8485,2.8443,2.8615,2.8631,2.8646,2.8699,2.8721,2.8466,2.8466,2.8465,2.8465,0,2.7984,2.8054,2.812,2.8177,2.8219,2.8302,2.83,2.8344,2.833,2.8336,2.8436,2.8466,2.8529,2.8557,2.8545,2.8676,2.8654,2.8616,2.8549,2.8674,2.8724,2.8744,2.8474,2.8472,2.8471,2.8469,0,0,2.8193,2.8238,2.8262,2.8286,2.8328,2.8382,2.8463,2.8523,2.856,2.8602,2.8668,2.876,2.8724,2.8759,2.8749,2.8806,2.893,2.876,2.8761,2.879,2.9073,2.9101,2.9125,2.891,2.8914,2.8917,2.9069,0,2.8348,2.8486,2.8474,2.8606,2.8669,2.8629,2.8698,2.8732,2.8739,2.8795,2.8803,2.8868,2.8816,2.8836,2.8891,2.8903,2.8986,2.8892,2.8972,2.8975,2.8961,2.9151,2.9182,2.9323,2.9089,2.9092,2.9094,0,2.8548,2.8594,2.8731,2.876,2.8786,2.8849,2.8901,2.8955,2.8991,2.8992,2.9029,2.9009,2.9089,2.902,2.9129,2.9065,2.9097,2.9107,2.9113,2.912,2.9042,2.9162,2.9369,2.9389,2.9125,2.9123,2.912,0,2.8684,2.8781,2.8874,2.8896,2.8933,2.8978,2.8995,2.9027,2.9063,2.9109,2.9131,2.9187,2.9218,2.9261,2.9256,2.9206,2.9367,2.9297,2.937,2.937,2.9406,2.9403,2.9619,2.9427,2.9427,2.9427,2.9426,0,2.8858,2.8943,2.8935,2.8993,2.9086,2.9071,2.9164,2.9177,2.9205,2.9264,2.9233,2.9289,2.9279,2.9335,2.9332,2.9422,2.9436,2.9439,2.9437,2.9442,2.9441,2.9462,2.9452,2.9432,2.9431,2.943,2.9429,0,2.9026,2.9025,2.9123,2.9149,2.9157,2.9225,2.9247,2.9301,2.9304,2.9379,2.9396,2.9403,2.9466,2.9465,2.9539,2.9536,2.9646,2.9634,2.9634,2.9631,2.9702,2.9695,2.9938,2.9969,2.9759,2.9761,2.9762,0,2.9137,2.9201,2.9232,2.9268,2.9288,2.9348,2.9383,2.937,2.9408,2.9452,2.9501,2.9561,2.9609,2.9712,2.9724,2.9779,2.9767,2.9848,2.9775,2.9777,2.9766,2.9762,2.9768,2.9863,2.9865,2.9867,2.9869,0,2.9334,2.9328,2.938,2.9431,2.9473,2.9513,2.9549,2.9581,2.9572,2.9616,2.9679,2.9716,2.9789,2.9849,2.9901,2.992,2.9893,2.9891,2.991,2.9915,2.9912,2.9913,2.9671,2.9886,2.9884,2.9883,2.9882,2.9881,2.9476,2.9529,2.9558,2.9616,2.9641,2.9675,2.9726,2.9735,2.9787,2.9844,2.9833,2.9904,2.9936,3.0003,3.0026,3.0081,3.0052,3.0081,3.0088,3.0095,3.0102,2.9903,3.0091,3.009,3.009,3.0089,3.0089,0,2.9669,2.9685,2.9738,2.9788,2.9833,2.9801,2.9839,2.9878,2.994,2.9972,3.0018,3.009,3.0147,3.0161,3.0216,3.0257,3.0246,3.0272,3.0268,3.0273,3.0125,3.0102,3.028,3.028,3.028,3.028,3.028,3.0279,2.9775,2.9863,2.9861,2.996,2.9976,3.0043,3.0067,3.0098,3.0122,3.0203,3.0249,3.0258,3.0282,3.0337,3.0388,3.039,3.0412,3.0442,3.044,3.0302,3.0283,3.0265,3.0243,3.0447,3.0448,3.0582,3.0584,3.0585]},{"header":{"parameterUnit":"m.s-1","parameterCategory":1,"la1":30.2991,"la2":30.254,"lo1":-89.0895,"lo2":-89.0444,"dy":0.0017,"dx":0.0017,"nx":28,"ny":28,"refTime":"2024-07-29T03:00:00:Z","depth":0,"parameterNumber":3,"parameterNumberName":"V-component_of_WINDS"},"data":[0,0,0,0,0,0,0,0,0,0,0,0,0,0,0,0,0,0,0,0,0,0,0,0,0,0,0,0,0,0,0,0,0,0,0,0,0,0,0,0,0,0,0,0,0,0,0,0,0,0,0,0,0,0,0,0,0,0,4.7828,4.7829,0,4.7938,4.7939,4.794,4.7907,4.7905,4.7902,4.79,4.8007,4.8011,4.8016,0,0,0,0,0,0,0,0,0,0,0,0,0,4.7581,4.7586,4.7828,4.7829,4.7831,4.7938,4.7939,4.7941,4.7907,4.7905,4.7902,4.7899,4.8005,4.8011,4.8017,0,0,0,0,0,0,0,0,0,0,0,0,0,4.7689,4.7587,4.7828,4.7827,4.7828,4.7938,4.7939,4.7941,4.7908,4.7905,4.7901,4.7898,4.8003,4.801,4.8017,4.8132,0,0,4.804,4.8043,0,0,0,0,0,0,0,0,4.7683,4.7698,4.7826,4.7827,4.7829,4.7905,4.7891,4.8005,4.7909,4.7878,4.79,4.7896,4.7975,4.7985,4.8013,4.8137,4.8142,4.8041,4.8045,4.8049,4.8051,0,0,0,0,0,0,0,4.7676,4.7693,4.7871,4.7828,4.7829,4.7819,4.783,4.7913,4.7944,4.788,4.7878,4.7892,4.7975,4.8006,4.8015,4.8143,4.8041,4.8047,4.8052,4.8055,4.8364,4.8368,0,0,0,0,0,0,4.7668,4.7687,4.7868,4.7874,4.7746,4.7826,4.7839,4.7884,4.7943,4.7949,4.7894,4.789,4.7995,4.8006,4.8019,4.8155,4.8049,4.8055,4.806,4.836,4.8365,4.8369,0,0,0,0,0,0,4.7663,4.7685,4.7863,4.7781,4.7802,4.7834,4.7885,4.7888,4.7918,4.7954,4.7959,4.792,4.7992,4.8008,4.8104,4.8158,4.8059,4.8066,4.8356,4.8362,4.8367,4.843,0,0,0,0,0,0,4.7656,4.7683,4.7729,4.7782,4.7807,4.7949,4.7888,4.7893,4.7932,4.7927,4.798,4.7985,4.7991,4.8093,4.8111,4.8167,4.8071,4.8351,4.8359,4.8365,4.8423,4.8437,4.8449,0,0,0,0,0,4.7648,4.7741,4.7731,4.7753,4.7865,4.7953,4.7967,4.7974,4.7937,4.7982,4.8004,4.7983,4.815,4.8103,4.8124,4.8182,4.8348,4.8357,4.8365,4.8417,4.8434,4.8449,0,0,0,0,0,0,4.7692,4.7748,4.7738,4.7852,4.7898,4.7947,4.8004,4.7992,4.8047,4.804,4.8044,4.8056,4.8154,4.8178,4.8125,4.8294,4.8243,4.8256,4.8276,4.8292,4.8305,4.8296,4.8078,0,0,0,0,0,4.7715,4.7784,4.7828,4.7924,4.7948,4.7972,4.8011,4.8012,4.8059,4.8078,4.8107,4.8152,4.8213,4.8254,4.8313,4.8426,4.8436,4.8476,4.8489,4.8499,4.851,4.8569,4.8587,4.8397,4.8397,4.8397,0,0,4.7763,4.7803,4.7845,4.7934,4.797,4.8039,4.7989,4.8064,4.8114,4.8088,4.8181,4.8204,4.8253,4.8358,4.8405,4.838,4.8565,4.851,4.8518,4.8523,4.858,4.8598,4.8614,4.8403,4.8402,4.8401,0,0,4.7886,4.7924,4.8007,4.8045,4.81,4.8115,4.8135,4.8186,4.8201,4.8295,4.8276,4.8334,4.8442,4.8477,4.851,4.8645,4.8626,4.8663,4.873,4.8788,4.8803,4.8816,4.8862,4.8879,4.8674,4.8674,4.8674,0,4.7938,4.8043,4.8051,4.8128,4.8166,4.8148,4.8231,4.8266,4.8337,4.8363,4.8334,4.8468,4.85,4.8612,4.8645,4.8672,4.8693,4.8657,4.8801,4.8814,4.8826,4.887,4.8888,4.8678,4.8678,4.8678,4.8677,0,4.8104,4.8177,4.8237,4.8308,4.8353,4.8433,4.845,4.8494,4.8491,4.8509,4.8602,4.8641,4.8706,4.8733,4.873,4.8844,4.8826,4.88,4.8747,4.8848,4.889,4.8907,4.8684,4.8683,4.8682,4.8681,0,0,4.8257,4.8332,4.8354,4.8385,4.8444,4.8499,4.8577,4.8643,4.868,4.8729,4.8792,4.8883,4.8858,4.8895,4.8896,4.8946,4.9048,4.8913,4.8914,4.8935,4.9173,4.9192,4.9212,4.9037,4.904,4.9043,4.9168,0,4.8384,4.8523,4.8531,4.8655,4.8721,4.8705,4.8771,4.8813,4.8831,4.8888,4.8906,4.897,4.8934,4.8955,4.9005,4.9026,4.9096,4.9017,4.9093,4.9096,4.908,4.9234,4.9254,4.9371,4.9185,4.9187,4.9189,0,4.855,4.8606,4.8738,4.8787,4.8814,4.8875,4.8935,4.899,4.9037,4.9046,4.9086,4.908,4.9156,4.9102,4.9206,4.9152,4.9183,4.9198,4.9202,4.9209,4.9148,4.9242,4.9408,4.9425,4.9215,4.9213,4.9211,0,4.8647,4.8755,4.8847,4.8875,4.8935,4.8977,4.9003,4.9047,4.9085,4.9137,4.9162,4.9221,4.9254,4.9299,4.9307,4.9268,4.941,4.9357,4.9417,4.9417,4.9447,4.9445,4.9619,4.947,4.947,4.947,4.9469,0,4.8787,4.8867,4.8892,4.8948,4.9037,4.9045,4.9132,4.9155,4.9193,4.9252,4.924,4.9295,4.9304,4.936,4.9367,4.945,4.9465,4.9472,4.9473,4.9473,4.9472,4.9492,4.9484,4.9474,4.9473,4.9472,4.9471,0,4.8909,4.8929,4.9028,4.9077,4.9091,4.9154,4.9194,4.9247,4.9264,4.9338,4.9355,4.938,4.9446,4.9459,4.9536,4.954,4.9639,4.9632,4.9624,4.9623,4.9681,4.9675,4.9874,4.9899,4.9735,4.9737,4.9738,0,4.8996,4.9058,4.9114,4.9153,4.9182,4.9246,4.9286,4.9295,4.9337,4.9394,4.9439,4.9503,4.9555,4.9659,4.9683,4.974,4.9734,4.98,4.9742,4.974,4.9733,4.9728,4.9733,4.981,4.9812,4.9813,4.9814,0,4.9148,4.9155,4.9214,4.9277,4.9325,4.9374,4.942,4.9453,4.9468,4.9514,4.9582,4.9623,4.9701,4.9764,4.9822,4.9846,4.9832,4.9832,4.9849,4.9849,4.9841,4.9844,4.9652,4.9827,4.9826,4.9825,4.9824,4.9824,4.9255,4.9308,4.9356,4.9421,4.9457,4.9501,4.9553,4.9576,4.9633,4.97,4.9701,4.9774,4.9817,4.9893,4.9921,4.9976,4.9955,4.998,4.9986,4.9991,4.9996,4.9833,4.9987,4.9987,4.9986,4.9986,4.9986,0,4.9404,4.9434,4.9494,4.9561,4.9612,4.9597,4.9647,4.969,4.9755,4.9797,4.9849,4.9925,4.9986,5.0014,5.0073,5.0112,5.0107,5.0127,5.0123,5.0129,5.0012,4.9991,5.013,5.013,5.013,5.013,5.013,5.013,4.9488,4.9577,4.9589,4.9695,4.9724,4.9797,4.9827,4.9866,4.9899,4.9986,5.0037,5.0056,5.0092,5.0153,5.0207,5.0214,5.0235,5.0258,5.0261,5.0152,5.0137,5.0123,5.0103,5.0263,5.0263,5.0373,5.0374,5.0375]}]]